| time (UTC) | temp F | wind direction | speed MPH | gust MPH | rain 1hr in | rain 24hr in | rain mn in | humidity % | barometer mb |
| 20260902195751 | 77 | 55 | 2.0 | 8.0 | 0.00 | 0.00 | 0.00 | 65 | 545.5 |
| 20260902194750 | 77 | 43 | 0.0 | 4.0 | 0.00 | 0.00 | 0.00 | 65 | 595.5 |
| 20260902193749 | 78 | 43 | 0.0 | 0.0 | 0.00 | 0.00 | 0.00 | 64 | 504.5 |
| 20260902192745 | 78 | 43 | 0.0 | 0.0 | 0.00 | 0.00 | 0.00 | 63 | 485.4 |
| 20260902191747 | 79 | 43 | 1.0 | 5.0 | 0.00 | 0.00 | 0.00 | 63 | 854.3 |
| 20260902190744 | 79 | 32 | 0.0 | 4.0 | 0.00 | 0.00 | 0.00 | 61 | 698.8 |
| 20260902185744 | 80 | 284 | 0.0 | 0.0 | 0.00 | 0.00 | 0.00 | 59 | 567.6 |
| 20260902184743 | 81 | 284 | 0.0 | 1.0 | 0.00 | 0.00 | 0.00 | 58 | 973.9 |
| 20260902183744 | 81 | 272 | 0.0 | 0.0 | 0.00 | 0.00 | 0.00 | 57 | 1055.5 |
| 20260902182742 | 82 | 272 | 0.0 | 0.0 | 0.00 | 0.00 | 0.00 | 55 | 696.3 |
| 20260902181737 | 82 | 272 | 0.0 | 0.0 | 0.00 | 0.00 | 0.00 | 55 | 1081.9 |
| 20260902180733 | 82 | 272 | 0.0 | 0.0 | 0.00 | 0.00 | 0.00 | 55 | 528.8 |
| 20260902175730 | 83 | 272 | 0.0 | 0.0 | 0.00 | 0.00 | 0.00 | 55 | 860.2 |
| 20260902174729 | 83 | 272 | 0.0 | 0.0 | 0.00 | 0.00 | 0.00 | 53 | 702.7 |
| 20260902173723 | 83 | 272 | 0.0 | 0.0 | 0.00 | 0.00 | 0.00 | 54 | 605.5 |
| 20260902172722 | 84 | 272 | 0.0 | 0.0 | 0.00 | 0.00 | 0.00 | 52 | 789.7 |
| 20260902171723 | 84 | 272 | 0.0 | 0.0 | 0.00 | 0.00 | 0.00 | 51 | 527.3 |
| 20260902170721 | 85 | 272 | 0.0 | 0.0 | 0.00 | 0.00 | 0.00 | 50 | 587.7 |
| 20260902165723 | 85 | 272 | 0.0 | 0.0 | 0.00 | 0.00 | 0.00 | 48 | 798.7 |
| 20260902164721 | 85 | 272 | 0.0 | 0.0 | 0.00 | 0.00 | 0.00 | 49 | 1053.3 |
| 20260902163720 | 86 | 272 | 0.0 | 0.0 | 0.00 | 0.00 | 0.00 | 49 | 654.6 |
| 20260902162718 | 86 | 272 | 0.0 | 0.0 | 0.00 | 0.00 | 0.00 | 47 | 755.7 |
| 20260902162154 | 86 | 272 | 0.0 | 0.0 | 0.00 | 0.00 | 0.00 | 47 | 560.4 |
| 20260902160715 | 87 | 272 | 0.0 | 0.0 | 0.00 | 0.00 | 0.00 | 47 | 457.4 |
| 20260902155713 | 87 | 277 | 0.0 | 0.0 | 0.00 | 0.00 | 0.00 | 45 | 1199.2 |
| 20260902154713 | 88 | 277 | 0.0 | 0.0 | 0.00 | 0.00 | 0.00 | 46 | 488.5 |
| 20260902153709 | 87 | 277 | 0.0 | 0.0 | 0.00 | 0.00 | 0.00 | 45 | 782.8 |
| 20260902152709 | 87 | 277 | 0.0 | 0.0 | 0.00 | 0.00 | 0.00 | 47 | 639.8 |
| 20260902151712 | 87 | 209 | 0.0 | 0.0 | 0.00 | 0.00 | 0.00 | 48 | 988.3 |
| 20260902150705 | 87 | 209 | 0.0 | 0.0 | 0.00 | 0.00 | 0.00 | 46 | 446.5 |
| 20260902145708 | 87 | 209 | 0.0 | 0.0 | 0.00 | 0.00 | 0.00 | 44 | 482.2 |
| 20260902144701 | 87 | 234 | 0.0 | 0.0 | 0.00 | 0.00 | 0.00 | 46 | 790.3 |
| 20260902143656 | 88 | 183 | 0.0 | 0.0 | 0.00 | 0.00 | 0.00 | 44 | 835.7 |
| 20260902143147 | 88 | 189 | 0.0 | 0.0 | 0.00 | 0.00 | 0.00 | 44 | 486.1 |
| 20260902142133 | 88 | 173 | 0.0 | 0.0 | 0.00 | 0.00 | 0.00 | 43 | 463.6 |
| 20260902140653 | 88 | 173 | 0.0 | 0.0 | 0.00 | 0.00 | 0.00 | 44 | 1013.8 |
| 20260902135649 | 88 | 122 | 0.0 | 0.0 | 0.00 | 0.00 | 0.00 | 43 | 1029.4 |
| 20260902134647 | 89 | 168 | 0.0 | 0.0 | 0.00 | 0.00 | 0.00 | 43 | 531.0 |
| 20260902133647 | 88 | 184 | 0.0 | 0.0 | 0.00 | 0.00 | 0.00 | 43 | 435.9 |
| 20260902132647 | 88 | 130 | 0.0 | 0.0 | 0.00 | 0.00 | 0.00 | 44 | 670.4 |
| 20260902131647 | 88 | 98 | 0.0 | 0.0 | 0.00 | 0.00 | 0.00 | 43 | 793.0 |
| 20260902130641 | 87 | 98 | 0.0 | 0.0 | 0.00 | 0.00 | 0.00 | 44 | 686.5 |
| 20260902125636 | 87 | 101 | 0.0 | 0.0 | 0.00 | 0.00 | 0.00 | 43 | 970.1 |
| 20260902125120 | 87 | 103 | 0.0 | 0.0 | 0.00 | 0.00 | 0.00 | 43 | 893.1 |
| 20260902123635 | 88 | 121 | 0.0 | 0.0 | 0.00 | 0.00 | 0.00 | 43 | 810.8 |
| 20260902122635 | 88 | 113 | 0.0 | 0.0 | 0.00 | 0.00 | 0.00 | 42 | 420.7 |
| 20260902121638 | 87 | 126 | 0.0 | 0.0 | 0.00 | 0.00 | 0.00 | 42 | 426.7 |
| 20260902121114 | 88 | 52 | 0.0 | 0.0 | 0.00 | 0.00 | 0.00 | 44 | 824.4 |
| 20260902115630 | 87 | 0 | 0.0 | 0.0 | 0.00 | 0.00 | 0.00 | 44 | 575.2 |
| 20260902114630 | 87 | 0 | 0.0 | 0.0 | 0.00 | 0.00 | 0.00 | 42 | 951.1 |
| 20260902113629 | 87 | 89 | 0.0 | 0.0 | 0.00 | 0.00 | 0.00 | 43 | 913.1 |
| 20260902112631 | 87 | 126 | 0.0 | 0.0 | 0.00 | 0.00 | 0.00 | 43 | 788.5 |
| 20260902111628 | 87 | 94 | 0.0 | 0.0 | 0.00 | 0.00 | 0.00 | 43 | 561.4 |
| 20260902110625 | 87 | 0 | 0.0 | 0.0 | 0.00 | 0.00 | 0.00 | 43 | 443.7 |
| 20260902105625 | 86 | 96 | 0.0 | 0.0 | 0.00 | 0.00 | 0.00 | 42 | 576.1 |
| 20260902104626 | 86 | 0 | 0.0 | 0.0 | 0.00 | 0.00 | 0.00 | 45 | 969.0 |
| 20260902103625 | 85 | 106 | 0.0 | 0.0 | 0.00 | 0.00 | 0.00 | 44 | 587.7 |
| 20260902102625 | 85 | 129 | 0.0 | 0.0 | 0.00 | 0.00 | 0.00 | 43 | 1245.5 |
| 20260902101627 | 85 | 101 | 0.0 | 0.0 | 0.00 | 0.00 | 0.00 | 44 | 555.4 |
| 20260902100627 | 84 | 115 | 0.0 | 0.0 | 0.00 | 0.00 | 0.00 | 45 | 951.5 |
| 20260902095623 | 84 | 109 | 0.0 | 0.0 | 0.00 | 0.00 | 0.00 | 44 | 411.8 |
| 20260902095106 | 84 | 0 | 0.0 | 0.0 | 0.00 | 0.00 | 0.00 | 45 | 639.9 |
| 20260902093618 | 84 | 110 | 0.0 | 0.0 | 0.00 | 0.00 | 0.00 | 45 | 974.7 |
| 20260902092617 | 83 | 94 | 0.0 | 0.0 | 0.00 | 0.00 | 0.00 | 44 | 460.7 |
| 20260902091620 | 82 | 103 | 0.0 | 0.0 | 0.00 | 0.00 | 0.00 | 46 | 512.3 |
| 20260902091107 | 83 | 0 | 0.0 | 0.0 | 0.00 | 0.00 | 0.00 | 45 | 417.7 |
| 20260902085613 | 82 | 95 | 0.0 | 0.0 | 0.00 | 0.00 | 0.00 | 47 | 536.6 |
| 20260902085052 | 82 | 0 | 0.0 | 0.0 | 0.00 | 0.00 | 0.00 | 47 | 430.2 |
| 20260902083613 | 82 | 0 | 0.0 | 0.0 | 0.00 | 0.00 | 0.00 | 48 | 504.0 |
| 20260902083057 | 81 | 113 | 0.0 | 12.0 | 0.00 | 0.00 | 0.00 | 48 | 1268.1 |
| 20260902081607 | 81 | 0 | 5.0 | 12.0 | 0.00 | 0.00 | 0.00 | 47 | 575.0 |
| 20260902080609 | 80 | 43 | 6.0 | 15.0 | 0.00 | 0.00 | 0.00 | 49 | 889.1 |
| 20260902075603 | 80 | 0 | 7.0 | 16.0 | 0.00 | 0.00 | 0.00 | 49 | 1228.6 |
| 20260902074602 | 80 | 0 | 5.0 | 11.0 | 0.00 | 0.00 | 0.00 | 51 | 912.6 |
| 20260902073602 | 79 | 42 | 1.0 | 10.0 | 0.00 | 0.00 | 0.00 | 53 | 482.2 |
| 20260902072608 | 78 | 13 | 1.0 | 6.0 | 0.00 | 0.00 | 0.00 | 57 | 1068.0 |
| 20260902071604 | 78 | 17 | 2.0 | 7.0 | 0.00 | 0.00 | 0.00 | 59 | 433.5 |
| 20260902070559 | 77 | 30 | 2.0 | 9.0 | 0.00 | 0.00 | 0.00 | 60 | 993.0 |
| 20260902065552 | 76 | 5 | 3.0 | 9.0 | 0.00 | 0.00 | 0.00 | 61 | 1025.2 |
| 20260902065025 | 76 | 28 | 3.0 | 8.0 | 0.00 | 0.00 | 0.00 | 62 | 1024.0 |
| 20260902063545 | 74 | 19 | 3.0 | 8.0 | 0.00 | 0.00 | 0.00 | 64 | 1269.0 |
| 20260902062545 | 74 | 5 | 3.0 | 10.0 | 0.00 | 0.00 | 0.00 | 65 | 599.2 |
| 20260902060542 | 72 | 5 | 3.0 | 10.0 | 0.00 | 0.00 | 0.00 | 67 | 456.5 |
| 20260902055541 | 72 | 13 | 2.0 | 8.0 | 0.00 | 0.00 | 0.00 | 68 | 543.7 |
| 20260902054541 | 71 | 0 | 2.0 | 8.0 | 0.00 | 0.00 | 0.00 | 69 | 978.4 |
| 20260902054512 | 71 | 0 | 3.0 | 9.0 | 0.00 | 0.00 | 0.00 | 69 | 578.3 |
| 20260902052543 | 71 | 355 | 2.0 | 9.0 | 0.00 | 0.00 | 0.00 | 70 | 666.9 |
| 20260902051543 | 70 | 13 | 2.0 | 9.0 | 0.00 | 0.00 | 0.00 | 70 | 665.7 |
| 20260902050542 | 70 | 12 | 2.0 | 8.0 | 0.00 | 0.00 | 0.00 | 70 | 1188.0 |
| 20260902045537 | 70 | 346 | 3.0 | 9.0 | 0.00 | 0.00 | 0.00 | 70 | 496.8 |
| 20260902045013 | 70 | 11 | 3.0 | 9.0 | 0.00 | 0.00 | 0.00 | 70 | 605.6 |
| 20260902043535 | 70 | 5 | 1.0 | 7.0 | 0.00 | 0.00 | 0.00 | 70 | 404.9 |
| 20260902043025 | 70 | 355 | 2.0 | 7.0 | 0.00 | 0.00 | 0.00 | 70 | 735.2 |
| 20260902041536 | 70 | 5 | 2.0 | 9.0 | 0.00 | 0.00 | 0.00 | 70 | 1085.0 |
| 20260902040535 | 70 | 28 | 3.0 | 9.0 | 0.00 | 0.00 | 0.00 | 70 | 1000.5 |
| 20260902035535 | 70 | 0 | 3.0 | 9.0 | 0.00 | 0.00 | 0.00 | 70 | 1159.9 |
| 20260902034536 | 70 | 0 | 3.0 | 9.0 | 0.00 | 0.00 | 0.00 | 70 | 1209.9 |
| 20260902033531 | 70 | 355 | 2.0 | 8.0 | 0.00 | 0.00 | 0.00 | 70 | 804.0 |
| 20260902033013 | 70 | 355 | 3.0 | 10.0 | 0.00 | 0.00 | 0.00 | 70 | 1005.7 |
| 20260902031527 | 70 | 5 | 3.0 | 9.0 | 0.00 | 0.00 | 0.00 | 70 | 492.6 |
| 20260902030525 | 70 | 17 | 2.0 | 10.0 | 0.00 | 0.00 | 0.00 | 70 | 612.4 |
| 20260902025525 | 70 | 0 | 1.0 | 8.0 | 0.00 | 0.00 | 0.00 | 70 | 1148.2 |
| 20260902024524 | 71 | 24 | 1.0 | 8.0 | 0.00 | 0.00 | 0.00 | 69 | 723.6 |
| 20260902024012 | 71 | 17 | 2.0 | 9.0 | 0.00 | 0.00 | 0.00 | 69 | 458.9 |
| 20260902022517 | 71 | 348 | 3.0 | 9.0 | 0.00 | 0.00 | 0.00 | 68 | 1139.6 |
| 20260902021518 | 71 | 355 | 4.0 | 10.0 | 0.00 | 0.00 | 0.00 | 68 | 439.9 |
| 20260902020516 | 71 | 355 | 3.0 | 9.0 | 0.00 | 0.00 | 0.00 | 69 | 583.8 |
| 20260902015514 | 71 | 355 | 2.0 | 9.0 | 0.00 | 0.00 | 0.00 | 69 | 577.4 |
| 20260902014511 | 71 | 0 | 3.0 | 10.0 | 0.00 | 0.00 | 0.00 | 69 | 1040.2 |
| 20260902013512 | 71 | 11 | 3.0 | 8.0 | 0.00 | 0.00 | 0.00 | 68 | 957.5 |
| 20260902012507 | 71 | 355 | 4.0 | 12.0 | 0.00 | 0.00 | 0.00 | 68 | 598.3 |
| 20260902011508 | 72 | 344 | 4.0 | 10.0 | 0.00 | 0.00 | 0.00 | 68 | 468.9 |
| 20260902010948 | 72 | 9 | 2.0 | 7.0 | 0.00 | 0.00 | 0.00 | 67 | 580.3 |
| 20260902005505 | 72 | 0 | 2.0 | 10.0 | 0.00 | 0.00 | 0.00 | 66 | 415.5 |
| 20260902004506 | 72 | 9 | 4.0 | 11.0 | 0.00 | 0.00 | 0.00 | 65 | 822.4 |
| 20260902003504 | 73 | 15 | 3.0 | 11.0 | 0.00 | 0.00 | 0.00 | 65 | 1036.9 |
| 20260902002504 | 73 | 31 | 3.0 | 11.0 | 0.00 | 0.01 | 0.00 | 65 | 609.4 |
| 20260902001501 | 73 | 349 | 2.0 | 9.0 | 0.00 | 0.01 | 0.00 | 66 | 478.1 |
| 20260902000503 | 72 | 351 | 4.0 | 10.0 | 0.00 | 0.01 | 0.00 | 66 | 560.0 |
| 20260901235939 | 72 | 348 | 3.0 | 10.0 | 0.00 | 0.01 | 0.00 | 66 | 611.2 |
| 20260901234457 | 73 | 0 | 5.0 | 12.0 | 0.00 | 0.01 | 0.00 | 65 | 634.1 |
| 20260901233458 | 73 | 348 | 5.0 | 12.0 | 0.00 | 0.01 | 0.00 | 64 | 580.3 |
| 20260901232457 | 74 | 0 | 5.0 | 13.0 | 0.00 | 0.01 | 0.00 | 63 | 587.8 |
| 20260901231459 | 75 | 326 | 4.0 | 12.0 | 0.00 | 0.01 | 0.00 | 60 | 1238.9 |
| 20260901230453 | 77 | 5 | 2.0 | 8.0 | 0.00 | 0.01 | 0.00 | 58 | 458.8 |
| 20260901225453 | 77 | 26 | 1.0 | 6.0 | 0.00 | 0.01 | 0.00 | 58 | 466.6 |
| 20260901224447 | 77 | 27 | 1.0 | 8.0 | 0.00 | 0.01 | 0.00 | 59 | 999.5 |
| 20260901223447 | 76 | 30 | 2.0 | 8.0 | 0.00 | 0.01 | 0.00 | 60 | 485.6 |
| 20260901222448 | 76 | 24 | 3.0 | 9.0 | 0.00 | 0.22 | 0.00 | 60 | 872.2 |
| 20260901221441 | 76 | 39 | 5.0 | 11.0 | 0.00 | 0.57 | 0.00 | 60 | 1074.9 |
| 20260901220924 | 76 | 0 | 6.0 | 14.0 | 0.00 | 0.63 | 0.00 | 60 | 466.0 |
| 20260901215438 | 75 | 355 | 5.0 | 11.0 | 0.00 | 0.63 | 0.63 | 64 | 518.8 |
| 20260901214919 | 75 | 355 | 4.0 | 9.0 | 0.00 | 0.63 | 0.63 | 64 | 417.9 |
| 20260901213431 | 75 | 355 | 3.0 | 9.0 | 0.00 | 0.63 | 0.63 | 64 | 695.7 |
| 20260901212433 | 76 | 355 | 2.0 | 5.0 | 0.00 | 0.63 | 0.63 | 64 | 829.5 |
| 20260901211430 | 76 | 355 | 2.0 | 5.0 | 0.00 | 0.63 | 0.63 | 63 | 800.1 |
| 20260901210431 | 76 | 355 | 2.0 | 5.0 | 0.00 | 0.63 | 0.63 | 62 | 911.9 |
| 20260901205907 | 76 | 351 | 2.0 | 6.0 | 0.00 | 0.63 | 0.63 | 62 | 1089.5 |
| 20260901204430 | 76 | 0 | 1.0 | 3.0 | 0.00 | 0.63 | 0.63 | 62 | 764.2 |
| 20260901203431 | 76 | 0 | 3.0 | 6.0 | 0.00 | 0.63 | 0.63 | 61 | 934.7 |
| 20260901202911 | 76 | 12 | 2.0 | 7.0 | 0.00 | 0.63 | 0.63 | 61 | 1131.5 |
| 20260901201430 | 77 | 0 | 1.0 | 4.0 | 0.00 | 0.63 | 0.63 | 61 | 406.7 |